sat.trackr.live / text

‹ back to catalog

VIREON-1

NORAD 68434 · 2026-067U

PAYLOAD ACTIVE UNKNOWN

§ Identity

Operator
Country
UK
Launch date
2026-03-30
Launch site
AFWTR
Launch vehicle
Mass (kg)
RCS (m²)

External: N2YO · Heavens-Above · Gunter

§ Orbital elements

Epoch: 2026-05-25T03:02:56.293152Z

Period
94.83 min
Inclination
97.4570°
Eccentricity
0.0003410
Mean motion
15.18436933 rev/d
Perigee alt
508.2 km
Apogee alt
512.9 km
Semi-major
6,888.7 km
B*
1.7298e-4
RAAN
103.9802°
Arg perigee
73.0187°
Mean anomaly
287.1421°
Rev number
844

§ Raw data

VIREON-11 68434U 26067U   26145.12704043  .00003494  00000+0  17298-3 0  99942 68434  97.4570 103.9802 0003410  73.0187 287.1421 15.18436933  8440

JSON: /api/v1/satellites/68434 · /tle

For live sub-satellite position, see the globe view (requires WebGL).

§ Visibility from observer

Set your observer location to see the next 7 days of passes ≥ 10°. The values pass through the URL so the page stays shareable.

No JS? Fill the form by hand. The geolocation button needs JavaScript.